Volver al catálogo

COSMOS 1797

ActivoMilitarLEO
NORAD 17141·PAYLOAD·🇷🇺 Russia

Lanzado Nov 21, 1986 desde Plesetsk Cosmodrome

Loading…

Próximos Pases (próximas 24 horas)

TLE

ActualizadoSource: Space-Track

Época: Sep 14, 2026, 15:53 UTC

1 17141U 86092D   26257.66235035  .00000006  00000-0  14294-3 0  9990
2 17141  74.0137 138.4772 0018512 187.0473 201.0076 12.51645438819213

Sigue COSMOS 1797 en tiempo real con AllMySat

Download on the App Store